Time,TemperatureF,DewpointF,PressureIn,WindDirection,WindDirectionDegrees,WindSpeedMPH,WindSpeedGustMPH,Humidity,HourlyPrecipIn,Conditions,Clouds,dailyrainin,SoftwareType,DateUTC
2013-06-15 00:01:00,61.4,56.5,29.82,North,0,0.0,0.0,84,0.00,,,0.00,WUHU216HW,2013-06-15 04:01:00,
2013-06-15 00:06:00,61.6,56.7,29.82,North,0,0.0,0.0,84,0.00,,,0.00,WUHU216HW,2013-06-15 04:06:00,
2013-06-15 00:11:00,61.9,57.1,29.82,North,0,0.0,0.0,84,0.00,,,0.00,WUHU216HW,2013-06-15 04:11:00,
2013-06-15 00:16:00,61.9,56.7,29.82,North,0,0.0,0.0,83,0.00,,,0.00,WUHU216HW,2013-06-15 04:16:00,
2013-06-15 00:21:00,62.1,56.9,29.82,North,0,0.0,0.0,83,0.00,,,0.00,WUHU216HW,2013-06-15 04:21:00,
2013-06-15 00:26:00,61.9,56.7,29.82,North,0,0.0,0.0,83,0.00,,,0.00,WUHU216HW,2013-06-15 04:26:00,
2013-06-15 00:31:00,61.9,56.7,29.82,North,0,0.0,0.0,83,0.00,,,0.00,WUHU216HW,2013-06-15 04:31:00,
2013-06-15 00:36:00,61.9,56.7,29.82,North,0,0.0,0.0,83,0.00,,,0.00,WUHU216HW,2013-06-15 04:36:00,
2013-06-15 00:41:00,61.7,56.5,29.82,North,0,0.0,0.0,83,0.00,,,0.00,WUHU216HW,2013-06-15 04:41:00,
2013-06-15 00:46:00,61.7,56.5,29.82,North,0,0.0,0.0,83,0.00,,,0.00,WUHU216HW,2013-06-15 04:46:00,
2013-06-15 00:51:00,61.7,56.5,29.82,North,0,0.0,0.0,83,0.00,,,0.00,WUHU216HW,2013-06-15 04:51:00,
2013-06-15 00:56:00,61.9,56.7,29.82,North,0,0.0,0.0,83,0.00,,,0.00,WUHU216HW,2013-06-15 04:56:00,
2013-06-15 01:01:00,61.9,56.7,29.82,North,0,0.0,0.0,83,0.00,,,0.00,WUHU216HW,2013-06-15 05:01:00,
2013-06-15 01:06:00,62.1,56.9,29.82,North,0,0.0,0.0,83,0.00,,,0.00,WUHU216HW,2013-06-15 05:06:00,
2013-06-15 01:11:00,62.3,57.1,29.82,North,0,0.0,0.0,83,0.00,,,0.00,WUHU216HW,2013-06-15 05:11:00,
2013-06-15 01:16:00,62.5,57.3,29.82,North,0,0.0,0.0,83,0.00,,,0.00,WUHU216HW,2013-06-15 05:16:00,
2013-06-15 01:21:00,62.5,57.3,29.82,North,0,0.0,0.0,83,0.00,,,0.00,WUHU216HW,2013-06-15 05:21:00,
2013-06-15 01:26:00,62.6,57.1,29.82,North,0,0.0,0.0,82,0.00,,,0.00,WUHU216HW,2013-06-15 05:26:00,
2013-06-15 01:31:00,62.8,57.3,29.82,North,0,0.0,0.0,82,0.00,,,0.00,WUHU216HW,2013-06-15 05:31:00,
2013-06-15 01:36:00,63.0,57.1,29.82,North,0,0.0,0.0,81,0.00,,,0.00,WUHU216HW,2013-06-15 05:36:00,
2013-06-15 01:41:00,63.0,57.1,29.82,North,0,0.0,0.0,81,0.00,,,0.00,WUHU216HW,2013-06-15 05:41:00,
2013-06-15 01:46:00,62.8,56.9,29.82,North,0,0.0,0.0,81,0.00,,,0.00,WUHU216HW,2013-06-15 05:46:00,
2013-06-15 01:51:00,63.0,57.1,29.83,North,0,0.0,0.0,81,0.00,,,0.00,WUHU216HW,2013-06-15 05:51:00,
2013-06-15 01:56:00,62.8,56.9,29.83,North,0,0.0,0.0,81,0.00,,,0.00,WUHU216HW,2013-06-15 05:56:00,
2013-06-15 02:01:00,62.8,56.9,29.83,North,0,0.0,0.0,81,0.00,,,0.00,WUHU216HW,2013-06-15 06:01:00,
2013-06-15 02:06:00,63.0,57.1,29.83,North,0,0.0,0.0,81,0.00,,,0.00,WUHU216HW,2013-06-15 06:06:00,
2013-06-15 02:11:00,63.0,57.1,29.83,North,0,0.0,0.0,81,0.00,,,0.00,WUHU216HW,2013-06-15 06:11:00,
2013-06-15 02:16:00,63.0,57.1,29.83,North,0,0.0,0.0,81,0.00,,,0.00,WUHU216HW,2013-06-15 06:16:00,
2013-06-15 02:21:00,63.0,57.1,29.84,North,0,0.0,0.0,81,0.00,,,0.00,WUHU216HW,2013-06-15 06:21:00,
2013-06-15 02:26:00,62.8,56.9,29.83,North,0,0.0,0.0,81,0.00,,,0.00,WUHU216HW,2013-06-15 06:26:00,
2013-06-15 02:31:00,62.8,56.9,29.83,North,0,0.0,0.0,81,0.00,,,0.00,WUHU216HW,2013-06-15 06:31:00,
2013-06-15 02:36:00,62.8,56.9,29.83,North,0,0.0,0.0,81,0.00,,,0.00,WUHU216HW,2013-06-15 06:36:00,
2013-06-15 02:41:00,63.0,57.1,29.83,North,0,0.0,0.0,81,0.00,,,0.00,WUHU216HW,2013-06-15 06:41:00,
2013-06-15 02:46:00,63.0,57.1,29.83,North,0,0.0,0.0,81,0.00,,,0.00,WUHU216HW,2013-06-15 06:46:00,
2013-06-15 02:51:00,63.0,57.1,29.83,North,0,0.0,0.0,81,0.00,,,0.00,WUHU216HW,2013-06-15 06:51:00,
2013-06-15 02:56:00,62.8,56.9,29.84,North,0,0.0,0.0,81,0.00,,,0.00,WUHU216HW,2013-06-15 06:56:00,
2013-06-15 03:01:00,62.8,56.9,29.84,North,0,0.0,0.0,81,0.00,,,0.00,WUHU216HW,2013-06-15 07:01:00,
2013-06-15 03:06:00,62.6,56.7,29.85,North,0,0.0,0.0,81,0.00,,,0.00,WUHU216HW,2013-06-15 07:06:00,
2013-06-15 03:11:00,62.6,56.7,29.85,North,0,0.0,0.0,81,0.00,,,0.00,WUHU216HW,2013-06-15 07:11:00,
2013-06-15 03:16:00,62.5,56.5,29.85,North,0,0.0,0.0,81,0.00,,,0.00,WUHU216HW,2013-06-15 07:16:00,
2013-06-15 03:21:00,62.5,56.5,29.85,North,0,0.0,0.0,81,0.00,,,0.00,WUHU216HW,2013-06-15 07:21:00,
2013-06-15 03:26:00,62.5,56.5,29.85,North,0,0.0,0.0,81,0.00,,,0.00,WUHU216HW,2013-06-15 07:26:00,
2013-06-15 03:31:00,62.5,56.5,29.85,North,0,0.0,0.0,81,0.00,,,0.00,WUHU216HW,2013-06-15 07:31:00,
2013-06-15 03:36:00,62.5,56.5,29.85,North,0,0.0,0.0,81,0.00,,,0.00,WUHU216HW,2013-06-15 07:36:00,
2013-06-15 03:41:00,62.5,56.5,29.85,North,0,0.0,0.0,81,0.00,,,0.00,WUHU216HW,2013-06-15 07:41:00,
2013-06-15 03:46:00,62.5,56.5,29.85,North,0,0.0,0.0,81,0.00,,,0.00,WUHU216HW,2013-06-15 07:46:00,
2013-06-15 03:51:00,62.3,56.3,29.85,North,0,0.0,0.0,81,0.00,,,0.00,WUHU216HW,2013-06-15 07:51:00,
2013-06-15 03:56:00,62.5,56.5,29.85,North,0,0.0,0.0,81,0.00,,,0.00,WUHU216HW,2013-06-15 07:56:00,
2013-06-15 04:01:00,62.5,56.5,29.85,North,0,0.0,0.0,81,0.00,,,0.00,WUHU216HW,2013-06-15 08:01:00,
2013-06-15 04:06:00,62.5,56.5,29.85,North,0,0.0,0.0,81,0.00,,,0.00,WUHU216HW,2013-06-15 08:06:00,
2013-06-15 04:11:00,62.3,56.3,29.85,North,0,0.0,0.0,81,0.00,,,0.00,WUHU216HW,2013-06-15 08:11:00,
2013-06-15 04:16:00,62.3,56.3,29.85,North,0,0.0,0.0,81,0.00,,,0.00,WUHU216HW,2013-06-15 08:16:00,
2013-06-15 04:21:00,62.1,56.5,29.85,North,0,0.0,0.0,82,0.00,,,0.00,WUHU216HW,2013-06-15 08:21:00,
2013-06-15 04:26:00,61.9,56.3,29.85,North,0,0.0,0.0,82,0.00,,,0.00,WUHU216HW,2013-06-15 08:26:00,
2013-06-15 04:31:00,61.9,56.3,29.85,North,0,0.0,0.0,82,0.00,,,0.00,WUHU216HW,2013-06-15 08:31:00,
2013-06-15 04:36:00,61.7,56.2,29.85,North,0,0.0,0.0,82,0.00,,,0.00,WUHU216HW,2013-06-15 08:36:00,
2013-06-15 04:41:00,61.7,56.2,29.85,North,0,0.0,0.0,82,0.00,,,0.00,WUHU216HW,2013-06-15 08:41:00,
2013-06-15 04:46:00,61.6,56.3,29.85,North,0,0.0,0.0,83,0.00,,,0.00,WUHU216HW,2013-06-15 08:46:00,
2013-06-15 04:51:00,61.6,56.3,29.85,North,0,0.0,0.0,83,0.00,,,0.00,WUHU216HW,2013-06-15 08:51:00,
2013-06-15 04:56:00,61.6,56.3,29.86,North,0,0.0,0.0,83,0.00,,,0.00,WUHU216HW,2013-06-15 08:56:00,
2013-06-15 05:01:00,61.6,56.3,29.86,North,0,0.0,0.0,83,0.00,,,0.00,WUHU216HW,2013-06-15 09:01:00,
2013-06-15 05:06:00,61.6,56.3,29.86,North,0,0.0,0.0,83,0.00,,,0.00,WUHU216HW,2013-06-15 09:06:00,
2013-06-15 05:11:00,61.6,56.3,29.86,North,0,0.0,0.0,83,0.00,,,0.00,WUHU216HW,2013-06-15 09:11:00,
2013-06-15 05:16:00,61.7,56.5,29.86,North,0,0.0,0.0,83,0.00,,,0.00,WUHU216HW,2013-06-15 09:16:00,
2013-06-15 05:21:00,61.7,56.5,29.86,North,0,0.0,0.0,83,0.00,,,0.00,WUHU216HW,2013-06-15 09:21:00,
2013-06-15 05:26:00,61.6,56.3,29.87,North,0,0.0,0.0,83,0.00,,,0.00,WUHU216HW,2013-06-15 09:26:00,
2013-06-15 05:31:00,61.6,56.3,29.87,North,0,0.0,0.0,83,0.00,,,0.00,WUHU216HW,2013-06-15 09:31:00,
2013-06-15 05:36:00,61.4,56.2,29.87,North,0,0.0,0.0,83,0.00,,,0.00,WUHU216HW,2013-06-15 09:36:00,
2013-06-15 05:41:00,61.2,56.1,29.87,North,0,0.0,0.0,83,0.00,,,0.00,WUHU216HW,2013-06-15 09:41:00,
2013-06-15 05:46:00,61.2,56.1,29.87,North,0,0.0,0.0,83,0.00,,,0.00,WUHU216HW,2013-06-15 09:46:00,
2013-06-15 05:51:00,61.0,55.9,29.88,North,0,0.0,0.0,83,0.00,,,0.00,WUHU216HW,2013-06-15 09:51:00,
2013-06-15 05:56:00,60.8,55.7,29.87,North,0,0.0,0.0,83,0.00,,,0.00,WUHU216HW,2013-06-15 09:56:00,
2013-06-15 06:01:00,60.8,55.7,29.87,North,0,0.0,0.0,83,0.00,,,0.00,WUHU216HW,2013-06-15 10:01:00,
2013-06-15 06:06:00,60.8,55.7,29.87,North,0,0.0,0.0,83,0.00,,,0.00,WUHU216HW,2013-06-15 10:06:00,
2013-06-15 06:11:00,60.8,55.7,29.87,North,0,0.0,0.0,83,0.00,,,0.00,WUHU216HW,2013-06-15 10:11:00,
2013-06-15 06:16:00,60.8,55.7,29.87,North,0,0.0,0.0,83,0.00,,,0.00,WUHU216HW,2013-06-15 10:16:00,
2013-06-15 06:21:00,61.2,56.3,29.87,North,0,0.0,0.0,84,0.00,,,0.00,WUHU216HW,2013-06-15 10:21:00,
2013-06-15 06:26:00,61.2,56.3,29.87,North,0,0.0,0.0,84,0.00,,,0.00,WUHU216HW,2013-06-15 10:26:00,
2013-06-15 06:31:00,61.4,56.5,29.88,North,0,0.0,0.0,84,0.00,,,0.00,WUHU216HW,2013-06-15 10:31:00,
2013-06-15 06:36:00,61.6,56.7,29.88,North,0,0.0,0.0,84,0.00,,,0.00,WUHU216HW,2013-06-15 10:36:00,
2013-06-15 06:41:00,61.6,56.7,29.88,North,0,0.0,0.0,84,0.00,,,0.00,WUHU216HW,2013-06-15 10:41:00,
2013-06-15 06:46:00,61.6,56.7,29.88,North,0,0.0,0.0,84,0.00,,,0.00,WUHU216HW,2013-06-15 10:46:00,
2013-06-15 06:51:00,61.6,56.7,29.88,North,0,0.0,0.0,84,0.00,,,0.00,WUHU216HW,2013-06-15 10:51:00,
2013-06-15 06:56:00,61.6,56.7,29.89,North,0,0.0,0.0,84,0.00,,,0.00,WUHU216HW,2013-06-15 10:56:00,
2013-06-15 07:01:00,61.7,56.9,29.89,North,0,0.0,0.0,84,0.00,,,0.00,WUHU216HW,2013-06-15 11:01:00,
2013-06-15 07:06:00,61.9,57.1,29.89,North,0,0.0,0.0,84,0.00,,,0.00,WUHU216HW,2013-06-15 11:06:00,
2013-06-15 07:11:00,62.3,57.3,29.89,North,0,0.0,0.0,84,0.00,,,0.00,WUHU216HW,2013-06-15 11:11:00,
2013-06-15 07:16:00,62.5,57.3,29.89,North,0,0.0,0.0,83,0.00,,,0.00,WUHU216HW,2013-06-15 11:16:00,
2013-06-15 07:21:00,62.8,57.5,29.90,North,0,0.0,0.0,83,0.00,,,0.00,WUHU216HW,2013-06-15 11:21:00,
2013-06-15 07:26:00,63.0,57.7,29.90,North,0,0.0,0.0,83,0.00,,,0.00,WUHU216HW,2013-06-15 11:26:00,
2013-06-15 07:31:00,63.2,57.6,29.90,North,0,0.0,0.0,82,0.00,,,0.00,WUHU216HW,2013-06-15 11:31:00,
2013-06-15 07:36:00,63.4,57.8,29.90,North,0,0.0,0.0,82,0.00,,,0.00,WUHU216HW,2013-06-15 11:36:00,
2013-06-15 07:41:00,63.7,57.8,29.90,North,0,0.0,0.0,81,0.00,,,0.00,WUHU216HW,2013-06-15 11:41:00,
2013-06-15 07:46:00,64.1,57.8,29.90,North,0,0.0,0.0,80,0.00,,,0.00,WUHU216HW,2013-06-15 11:46:00,
2013-06-15 07:51:00,64.6,58.7,29.90,North,0,0.0,0.0,81,0.00,,,0.00,WUHU216HW,2013-06-15 11:51:00,
2013-06-15 07:56:00,65.2,58.9,29.90,North,0,0.0,0.0,80,0.00,,,0.00,WUHU216HW,2013-06-15 11:56:00,
2013-06-15 08:01:00,65.7,59.1,29.90,North,0,0.0,0.0,79,0.00,,,0.00,WUHU216HW,2013-06-15 12:01:00,
2013-06-15 08:06:00,65.7,59.1,29.90,North,0,0.0,0.0,79,0.00,,,0.00,WUHU216HW,2013-06-15 12:06:00,
2013-06-15 08:11:00,65.7,58.7,29.91,North,0,0.0,0.0,78,0.00,,,0.00,WUHU216HW,2013-06-15 12:11:00,
2013-06-15 08:16:00,65.7,58.3,29.91,North,0,0.0,0.0,77,0.00,,,0.00,WUHU216HW,2013-06-15 12:16:00,
2013-06-15 08:21:00,65.9,58.5,29.92,North,0,0.0,0.0,77,0.00,,,0.00,WUHU216HW,2013-06-15 12:21:00,
2013-06-15 08:26:00,65.9,58.9,29.92,North,0,0.0,0.0,78,0.00,,,0.00,WUHU216HW,2013-06-15 12:26:00,
2013-06-15 08:31:00,65.9,58.5,29.92,North,0,0.0,0.0,77,0.00,,,0.00,WUHU216HW,2013-06-15 12:31:00,
2013-06-15 08:36:00,66.1,58.6,29.92,North,0,0.0,0.0,77,0.00,,,0.00,WUHU216HW,2013-06-15 12:36:00,
2013-06-15 08:41:00,66.2,58.4,29.93,North,0,0.0,0.0,76,0.00,,,0.00,WUHU216HW,2013-06-15 12:41:00,
2013-06-15 08:46:00,66.4,58.6,29.93,North,0,0.0,0.0,76,0.00,,,0.00,WUHU216HW,2013-06-15 12:46:00,
2013-06-15 08:51:00,66.6,58.8,29.93,North,0,0.0,0.0,76,0.00,,,0.00,WUHU216HW,2013-06-15 12:51:00,
2013-06-15 08:56:00,66.8,58.6,29.93,North,0,0.0,0.0,75,0.00,,,0.00,WUHU216HW,2013-06-15 12:56:00,
2013-06-15 09:01:00,67.5,58.1,29.94,North,0,0.0,0.0,72,0.00,,,0.00,WUHU216HW,2013-06-15 13:01:00,
2013-06-15 09:06:00,68.2,58.2,29.94,North,0,0.0,0.0,70,0.00,,,0.00,WUHU216HW,2013-06-15 13:06:00,
2013-06-15 09:11:00,70.9,61.4,29.94,North,0,0.0,0.0,72,0.00,,,0.00,WUHU216HW,2013-06-15 13:11:00,
2013-06-15 09:16:00,74.0,64.1,29.94,North,0,0.0,0.0,71,0.00,,,0.00,WUHU216HW,2013-06-15 13:16:00,
2013-06-15 09:21:00,76.5,64.3,29.94,North,0,0.0,0.0,66,0.00,,,0.00,WUHU216HW,2013-06-15 13:21:00,
2013-06-15 09:26:00,77.8,63.7,29.94,North,0,0.0,0.0,62,0.00,,,0.00,WUHU216HW,2013-06-15 13:26:00,
2013-06-15 09:31:00,77.9,63.5,29.94,North,0,0.0,0.0,61,0.00,,,0.00,WUHU216HW,2013-06-15 13:31:00,
2013-06-15 09:36:00,76.9,61.5,29.94,North,0,0.0,0.0,59,0.00,,,0.00,WUHU216HW,2013-06-15 13:36:00,
2013-06-15 09:41:00,76.3,59.9,29.94,North,0,0.0,0.0,57,0.00,,,0.00,WUHU216HW,2013-06-15 13:41:00,
2013-06-15 09:46:00,77.2,61.3,29.94,North,0,0.0,0.0,58,0.00,,,0.00,WUHU216HW,2013-06-15 13:46:00,
2013-06-15 09:51:00,77.0,60.1,29.94,North,0,0.0,0.0,56,0.00,,,0.00,WUHU216HW,2013-06-15 13:51:00,
2013-06-15 09:56:00,75.8,58.4,29.94,North,0,0.0,0.0,55,0.00,,,0.00,WUHU216HW,2013-06-15 13:56:00,
2013-06-15 10:01:00,74.9,58.6,29.94,North,0,0.0,0.0,57,0.00,,,0.00,WUHU216HW,2013-06-15 14:01:00,
2013-06-15 10:06:00,74.3,58.6,29.94,North,0,0.0,0.0,58,0.00,,,0.00,WUHU216HW,2013-06-15 14:06:00,
2013-06-15 10:11:00,74.2,57.4,29.93,North,0,0.0,0.0,56,0.00,,,0.00,WUHU216HW,2013-06-15 14:11:00,
2013-06-15 10:16:00,74.0,57.7,29.93,North,0,0.0,0.0,57,0.00,,,0.00,WUHU216HW,2013-06-15 14:16:00,
2013-06-15 10:21:00,74.2,57.4,29.93,North,0,0.0,0.0,56,0.00,,,0.00,WUHU216HW,2013-06-15 14:21:00,
2013-06-15 10:26:00,74.2,56.3,29.93,North,0,0.0,0.0,54,0.00,,,0.00,WUHU216HW,2013-06-15 14:26:00,
2013-06-15 10:31:00,74.0,56.2,29.93,North,0,0.0,0.0,54,0.00,,,0.00,WUHU216HW,2013-06-15 14:31:00,
2013-06-15 10:36:00,73.8,56.0,29.93,North,0,0.0,0.0,54,0.00,,,0.00,WUHU216HW,2013-06-15 14:36:00,
2013-06-15 10:41:00,73.4,55.2,29.93,North,0,0.0,0.0,53,0.00,,,0.00,WUHU216HW,2013-06-15 14:41:00,
2013-06-15 10:46:00,73.4,55.2,29.93,North,0,0.0,0.0,53,0.00,,,0.00,WUHU216HW,2013-06-15 14:46:00,
2013-06-15 10:51:00,73.6,55.4,29.93,North,0,0.0,0.0,53,0.00,,,0.00,WUHU216HW,2013-06-15 14:51:00,
2013-06-15 10:56:00,73.6,55.4,29.93,North,0,0.0,0.0,53,0.00,,,0.00,WUHU216HW,2013-06-15 14:56:00,
2013-06-15 11:01:00,73.8,55.0,29.93,North,0,0.0,0.0,52,0.00,,,0.00,WUHU216HW,2013-06-15 15:01:00,
2013-06-15 11:06:00,73.8,54.0,29.93,North,0,0.0,0.0,50,0.00,,,0.00,WUHU216HW,2013-06-15 15:06:00,
2013-06-15 11:11:00,74.0,54.2,29.93,North,0,0.0,0.0,50,0.00,,,0.00,WUHU216HW,2013-06-15 15:11:00,
2013-06-15 11:16:00,74.2,53.7,29.93,North,0,0.0,0.0,49,0.00,,,0.00,WUHU216HW,2013-06-15 15:16:00,
2013-06-15 11:21:00,74.2,54.4,29.93,North,0,0.0,0.0,50,0.00,,,0.00,WUHU216HW,2013-06-15 15:21:00,
2013-06-15 11:26:00,74.2,51.4,29.93,North,0,0.0,0.0,45,0.00,,,0.00,WUHU216HW,2013-06-15 15:26:00,
2013-06-15 11:31:00,74.5,53.6,29.93,North,0,0.0,0.0,48,0.00,,,0.00,WUHU216HW,2013-06-15 15:31:00,
2013-06-15 11:36:00,74.7,54.3,29.93,North,0,0.0,0.0,49,0.00,,,0.00,WUHU216HW,2013-06-15 15:36:00,
2013-06-15 11:41:00,74.7,54.9,29.93,North,0,0.0,0.0,50,0.00,,,0.00,WUHU216HW,2013-06-15 15:41:00,
2013-06-15 11:46:00,74.5,51.1,29.93,North,0,0.0,0.0,44,0.00,,,0.00,WUHU216HW,2013-06-15 15:46:00,
2013-06-15 11:51:00,74.5,51.1,29.93,North,0,0.0,0.0,44,0.00,,,0.00,WUHU216HW,2013-06-15 15:51:00,
2013-06-15 11:56:00,74.5,53.6,29.94,North,0,0.0,0.0,48,0.00,,,0.00,WUHU216HW,2013-06-15 15:56:00,
2013-06-15 12:01:00,74.7,53.7,29.94,North,0,0.0,0.0,48,0.00,,,0.00,WUHU216HW,2013-06-15 16:01:00,
2013-06-15 12:06:00,74.7,52.5,29.94,North,0,0.0,0.0,46,0.00,,,0.00,WUHU216HW,2013-06-15 16:06:00,
2013-06-15 12:11:00,74.9,52.7,29.93,North,0,0.0,0.0,46,0.00,,,0.00,WUHU216HW,2013-06-15 16:11:00,
2013-06-15 12:16:00,75.1,52.8,29.93,North,0,0.0,0.0,46,0.00,,,0.00,WUHU216HW,2013-06-15 16:16:00,
2013-06-15 12:21:00,75.2,53.0,29.93,North,0,0.0,0.0,46,0.00,,,0.00,WUHU216HW,2013-06-15 16:21:00,
2013-06-15 12:26:00,75.4,52.6,29.93,North,0,0.0,0.0,45,0.00,,,0.00,WUHU216HW,2013-06-15 16:26:00,
2013-06-15 12:31:00,75.6,50.2,29.93,North,0,0.0,0.0,41,0.00,,,0.00,WUHU216HW,2013-06-15 16:31:00,
2013-06-15 12:36:00,75.8,51.0,29.92,North,0,0.0,0.0,42,0.00,,,0.00,WUHU216HW,2013-06-15 16:36:00,
2013-06-15 12:41:00,76.0,51.2,29.93,North,0,0.0,0.0,42,0.00,,,0.00,WUHU216HW,2013-06-15 16:41:00,
2013-06-15 12:46:00,76.1,52.6,29.92,North,0,0.0,0.0,44,0.00,,,0.00,WUHU216HW,2013-06-15 16:46:00,
2013-06-15 12:51:00,76.3,52.7,29.92,North,0,0.0,0.0,44,0.00,,,0.00,WUHU216HW,2013-06-15 16:51:00,
2013-06-15 12:56:00,76.7,52.5,29.92,North,0,0.0,0.0,43,0.00,,,0.00,WUHU216HW,2013-06-15 16:56:00,
2013-06-15 13:01:00,77.0,52.2,29.91,North,0,0.0,0.0,42,0.00,,,0.00,WUHU216HW,2013-06-15 17:01:00,
2013-06-15 13:06:00,77.2,52.3,29.91,North,0,0.0,0.0,42,0.00,,,0.00,WUHU216HW,2013-06-15 17:06:00,
2013-06-15 13:11:00,77.4,51.8,29.91,North,0,0.0,0.0,41,0.00,,,0.00,WUHU216HW,2013-06-15 17:11:00,
2013-06-15 13:16:00,77.8,50.0,29.91,North,0,0.0,0.0,38,0.00,,,0.00,WUHU216HW,2013-06-15 17:16:00,
2013-06-15 13:21:00,77.9,51.0,29.91,North,0,0.0,0.0,39,0.00,,,0.00,WUHU216HW,2013-06-15 17:21:00,
2013-06-15 13:26:00,78.1,51.1,29.91,North,0,0.0,0.0,39,0.00,,,0.00,WUHU216HW,2013-06-15 17:26:00,
2013-06-15 13:31:00,78.3,52.7,29.91,North,0,0.0,0.0,41,0.00,,,0.00,WUHU216HW,2013-06-15 17:31:00,
2013-06-15 13:36:00,78.5,50.7,29.91,North,0,0.0,0.0,38,0.00,,,0.00,WUHU216HW,2013-06-15 17:36:00,
2013-06-15 13:41:00,78.3,50.6,29.91,North,0,0.0,0.0,38,0.00,,,0.00,WUHU216HW,2013-06-15 17:41:00,
2013-06-15 13:46:00,78.1,51.9,29.91,North,0,0.0,0.0,40,0.00,,,0.00,WUHU216HW,2013-06-15 17:46:00,
2013-06-15 13:51:00,77.9,51.8,29.91,North,0,0.0,0.0,40,0.00,,,0.00,WUHU216HW,2013-06-15 17:51:00,
2013-06-15 13:56:00,78.1,51.9,29.91,North,0,0.0,0.0,40,0.00,,,0.00,WUHU216HW,2013-06-15 17:56:00,
2013-06-15 14:01:00,78.3,53.3,29.91,North,0,0.0,0.0,42,0.00,,,0.00,WUHU216HW,2013-06-15 18:01:00,
2013-06-15 14:06:00,78.5,52.2,29.91,North,0,0.0,0.0,40,0.00,,,0.00,WUHU216HW,2013-06-15 18:06:00,
2013-06-15 14:11:00,78.5,52.8,29.90,North,0,0.0,0.0,41,0.00,,,0.00,WUHU216HW,2013-06-15 18:11:00,
2013-06-15 14:16:00,78.1,52.6,29.91,North,0,0.0,0.0,41,0.00,,,0.00,WUHU216HW,2013-06-15 18:16:00,
2013-06-15 14:21:00,77.9,51.8,29.90,North,0,0.0,0.0,40,0.00,,,0.00,WUHU216HW,2013-06-15 18:21:00,
2013-06-15 14:26:00,78.1,52.6,29.90,North,0,0.0,0.0,41,0.00,,,0.00,WUHU216HW,2013-06-15 18:26:00,
2013-06-15 14:31:00,78.3,52.7,29.90,North,0,0.0,0.0,41,0.00,,,0.00,WUHU216HW,2013-06-15 18:31:00,
2013-06-15 14:36:00,78.5,52.8,29.90,North,0,0.0,0.0,41,0.00,,,0.00,WUHU216HW,2013-06-15 18:36:00,
2013-06-15 14:41:00,78.5,53.5,29.90,North,0,0.0,0.0,42,0.00,,,0.00,WUHU216HW,2013-06-15 18:41:00,
2013-06-15 14:46:00,78.5,53.5,29.90,North,0,0.0,0.0,42,0.00,,,0.00,WUHU216HW,2013-06-15 18:46:00,
2013-06-15 14:51:00,78.3,53.9,29.89,North,0,0.0,0.0,43,0.00,,,0.00,WUHU216HW,2013-06-15 18:51:00,
2013-06-15 14:56:00,78.3,52.7,29.89,North,0,0.0,0.0,41,0.00,,,0.00,WUHU216HW,2013-06-15 18:56:00,
2013-06-15 15:01:00,78.5,52.2,29.89,North,0,0.0,0.0,40,0.00,,,0.00,WUHU216HW,2013-06-15 19:01:00,
2013-06-15 15:06:00,78.7,53.0,29.89,North,0,0.0,0.0,41,0.00,,,0.00,WUHU216HW,2013-06-15 19:06:00,
2013-06-15 15:11:00,78.8,53.8,29.89,North,0,0.0,0.0,42,0.00,,,0.00,WUHU216HW,2013-06-15 19:11:00,
2013-06-15 15:16:00,78.8,53.8,29.89,North,0,0.0,0.0,42,0.00,,,0.00,WUHU216HW,2013-06-15 19:16:00,
2013-06-15 15:21:00,78.8,53.8,29.89,North,0,0.0,0.0,42,0.00,,,0.00,WUHU216HW,2013-06-15 19:21:00,
2013-06-15 15:26:00,78.8,52.6,29.89,North,0,0.0,0.0,40,0.00,,,0.00,WUHU216HW,2013-06-15 19:26:00,
2013-06-15 15:31:00,78.8,52.6,29.89,North,0,0.0,0.0,40,0.00,,,0.00,WUHU216HW,2013-06-15 19:31:00,
2013-06-15 15:36:00,78.8,51.8,29.89,North,0,0.0,0.0,39,0.00,,,0.00,WUHU216HW,2013-06-15 19:36:00,
2013-06-15 15:40:00,78.8,53.8,29.89,North,0,0.0,0.0,42,0.00,,,0.00,WUHU216HW,2013-06-15 19:40:00,
2013-06-15 15:45:00,78.8,53.2,29.88,North,0,0.0,0.0,41,0.00,,,0.00,WUHU216HW,2013-06-15 19:45:00,
2013-06-15 15:51:00,78.8,53.8,29.88,North,0,0.0,0.0,42,0.00,,,0.00,WUHU216HW,2013-06-15 19:51:00,
2013-06-15 15:55:00,78.7,52.4,29.88,North,0,0.0,0.0,40,0.00,,,0.00,WUHU216HW,2013-06-15 19:55:00,
2013-06-15 16:00:00,78.8,53.8,29.87,North,0,0.0,0.0,42,0.00,,,0.00,WUHU216HW,2013-06-15 20:00:00,
2013-06-15 16:05:00,78.8,53.8,29.87,North,0,0.0,0.0,42,0.00,,,0.00,WUHU216HW,2013-06-15 20:05:00,
2013-06-15 16:10:00,79.0,54.5,29.87,North,0,0.0,0.0,43,0.00,,,0.00,WUHU216HW,2013-06-15 20:10:00,
2013-06-15 16:15:00,78.8,55.0,29.87,North,0,0.0,0.0,44,0.00,,,0.00,WUHU216HW,2013-06-15 20:15:00,
2013-06-15 16:20:00,78.7,54.8,29.87,North,0,0.0,0.0,44,0.00,,,0.00,WUHU216HW,2013-06-15 20:20:00,
2013-06-15 16:25:00,78.8,55.6,29.87,North,0,0.0,0.0,45,0.00,,,0.00,WUHU216HW,2013-06-15 20:25:00,
2013-06-15 16:30:00,78.8,55.6,29.87,North,0,0.0,0.0,45,0.00,,,0.00,WUHU216HW,2013-06-15 20:30:00,
2013-06-15 16:35:00,78.8,56.3,29.87,North,0,0.0,0.0,46,0.00,,,0.00,WUHU216HW,2013-06-15 20:35:00,
2013-06-15 16:40:00,78.8,56.3,29.87,North,0,0.0,0.0,46,0.00,,,0.00,WUHU216HW,2013-06-15 20:40:00,
2013-06-15 16:45:00,78.8,56.3,29.87,North,0,0.0,0.0,46,0.00,,,0.00,WUHU216HW,2013-06-15 20:45:00,
2013-06-15 16:50:00,79.0,57.0,29.87,North,0,0.0,0.0,47,0.00,,,0.00,WUHU216HW,2013-06-15 20:50:00,
2013-06-15 16:55:00,79.2,56.0,29.87,North,0,0.0,0.0,45,0.00,,,0.00,WUHU216HW,2013-06-15 20:55:00,
2013-06-15 17:00:00,79.4,56.7,29.88,North,0,0.0,0.0,46,0.00,,,0.00,WUHU216HW,2013-06-15 21:00:00,
2013-06-15 17:05:00,79.4,56.7,29.88,North,0,0.0,0.0,46,0.00,,,0.00,WUHU216HW,2013-06-15 21:05:00,
2013-06-15 17:10:00,79.2,57.2,29.88,North,0,0.0,0.0,47,0.00,,,0.00,WUHU216HW,2013-06-15 21:10:00,
2013-06-15 17:15:00,78.8,56.9,29.88,North,0,0.0,0.0,47,0.00,,,0.00,WUHU216HW,2013-06-15 21:15:00,
2013-06-15 17:20:00,78.3,57.0,29.89,North,0,0.0,0.0,48,0.00,,,0.00,WUHU216HW,2013-06-15 21:20:00,
2013-06-15 17:25:00,77.6,57.0,29.88,North,0,0.0,0.0,49,0.00,,,0.00,WUHU216HW,2013-06-15 21:25:00,
2013-06-15 17:30:00,76.7,56.7,29.89,North,0,0.0,0.0,50,0.00,,,0.00,WUHU216HW,2013-06-15 21:30:00,
2013-06-15 17:35:00,76.3,56.9,29.88,North,0,0.0,0.0,51,0.00,,,0.00,WUHU216HW,2013-06-15 21:35:00,
2013-06-15 17:40:00,76.0,57.1,29.88,North,0,0.0,0.0,52,0.00,,,0.00,WUHU216HW,2013-06-15 21:40:00,
2013-06-15 17:45:00,75.8,57.4,29.88,North,0,0.0,0.0,53,0.00,,,0.00,WUHU216HW,2013-06-15 21:45:00,
2013-06-15 17:50:00,75.8,58.0,29.88,North,0,0.0,0.0,54,0.00,,,0.00,WUHU216HW,2013-06-15 21:50:00,
2013-06-15 17:56:00,75.8,58.0,29.88,North,0,0.0,0.0,54,0.00,,,0.00,WUHU216HW,2013-06-15 21:56:00,
2013-06-15 18:00:00,75.8,58.4,29.89,North,0,0.0,0.0,55,0.00,,,0.00,WUHU216HW,2013-06-15 22:00:00,
2013-06-15 18:05:00,75.4,58.2,29.88,North,0,0.0,0.0,55,0.00,,,0.00,WUHU216HW,2013-06-15 22:05:00,
2013-06-15 18:10:00,75.2,58.5,29.88,North,0,0.0,0.0,56,0.00,,,0.00,WUHU216HW,2013-06-15 22:10:00,
2013-06-15 18:16:00,74.9,58.2,29.88,North,0,0.0,0.0,56,0.00,,,0.00,WUHU216HW,2013-06-15 22:16:00,
2013-06-15 18:21:00,74.7,58.0,29.88,North,0,0.0,0.0,56,0.00,,,0.00,WUHU216HW,2013-06-15 22:21:00,
2013-06-15 18:25:00,74.7,58.4,29.88,North,0,0.0,0.0,57,0.00,,,0.00,WUHU216HW,2013-06-15 22:25:00,
2013-06-15 18:30:00,74.7,58.4,29.89,North,0,0.0,0.0,57,0.00,,,0.00,WUHU216HW,2013-06-15 22:30:00,
2013-06-15 18:35:00,74.5,58.2,29.89,North,0,0.0,0.0,57,0.00,,,0.00,WUHU216HW,2013-06-15 22:35:00,
2013-06-15 18:40:00,74.3,58.1,29.89,North,0,0.0,0.0,57,0.00,,,0.00,WUHU216HW,2013-06-15 22:40:00,
2013-06-15 18:45:00,74.3,58.1,29.89,North,0,0.0,0.0,57,0.00,,,0.00,WUHU216HW,2013-06-15 22:45:00,
2013-06-15 18:50:00,74.2,57.9,29.89,North,0,0.0,0.0,57,0.00,,,0.00,WUHU216HW,2013-06-15 22:50:00,
2013-06-15 18:55:00,74.3,58.1,29.89,North,0,0.0,0.0,57,0.00,,,0.00,WUHU216HW,2013-06-15 22:55:00,
2013-06-15 19:00:00,74.2,58.4,29.89,North,0,0.0,0.0,58,0.00,,,0.00,WUHU216HW,2013-06-15 23:00:00,
2013-06-15 19:05:00,74.2,58.4,29.89,North,0,0.0,0.0,58,0.00,,,0.00,WUHU216HW,2013-06-15 23:05:00,
2013-06-15 19:10:00,74.2,58.4,29.89,North,0,0.0,0.0,58,0.00,,,0.00,WUHU216HW,2013-06-15 23:10:00,
2013-06-15 19:15:00,74.2,58.4,29.89,North,0,0.0,0.0,58,0.00,,,0.00,WUHU216HW,2013-06-15 23:15:00,
2013-06-15 19:20:00,73.8,58.1,29.89,North,0,0.0,0.0,58,0.00,,,0.00,WUHU216HW,2013-06-15 23:20:00,
2013-06-15 19:25:00,73.8,58.5,29.88,North,0,0.0,0.0,59,0.00,,,0.00,WUHU216HW,2013-06-15 23:25:00,
2013-06-15 19:30:00,73.4,58.1,29.89,North,0,0.0,0.0,59,0.00,,,0.00,WUHU216HW,2013-06-15 23:30:00,
2013-06-15 19:35:00,73.4,58.1,29.88,North,0,0.0,0.0,59,0.00,,,0.00,WUHU216HW,2013-06-15 23:35:00,
2013-06-15 19:40:00,73.3,58.1,29.89,North,0,0.0,0.0,59,0.00,,,0.00,WUHU216HW,2013-06-15 23:40:00,
2013-06-15 19:45:00,73.3,58.5,29.89,North,0,0.0,0.0,60,0.00,,,0.00,WUHU216HW,2013-06-15 23:45:00,
2013-06-15 19:50:00,73.1,58.3,29.89,North,0,0.0,0.0,60,0.00,,,0.00,WUHU216HW,2013-06-15 23:50:00,
2013-06-15 19:55:00,73.1,58.8,29.89,North,0,0.0,0.0,61,0.00,,,0.00,WUHU216HW,2013-06-15 23:55:00,
2013-06-15 20:00:00,72.7,58.5,29.89,North,0,0.0,0.0,61,0.00,,,0.00,WUHU216HW,2013-06-16 00:00:00,
2013-06-15 20:05:00,72.5,58.8,29.89,North,0,0.0,0.0,62,0.00,,,0.00,WUHU216HW,2013-06-16 00:05:00,
2013-06-15 20:10:00,72.4,58.6,29.89,North,0,0.0,0.0,62,0.00,,,0.00,WUHU216HW,2013-06-16 00:10:00,
2013-06-15 20:15:00,72.4,59.1,29.89,North,0,0.0,0.0,63,0.00,,,0.00,WUHU216HW,2013-06-16 00:15:00,
2013-06-15 20:20:00,72.4,59.5,29.89,North,0,0.0,0.0,64,0.00,,,0.00,WUHU216HW,2013-06-16 00:20:00,
2013-06-15 20:25:00,72.2,59.3,29.89,North,0,0.0,0.0,64,0.00,,,0.00,WUHU216HW,2013-06-16 00:25:00,
2013-06-15 20:30:00,72.0,59.1,29.89,North,0,0.0,0.0,64,0.00,,,0.00,WUHU216HW,2013-06-16 00:30:00,
2013-06-15 20:35:00,71.8,59.4,29.90,North,0,0.0,0.0,65,0.00,,,0.00,WUHU216HW,2013-06-16 00:35:00,
2013-06-15 20:40:00,71.6,59.7,29.89,North,0,0.0,0.0,66,0.00,,,0.00,WUHU216HW,2013-06-16 00:40:00,
2013-06-15 20:45:00,71.5,59.5,29.89,North,0,0.0,0.0,66,0.00,,,0.00,WUHU216HW,2013-06-16 00:45:00,
2013-06-15 20:50:00,71.3,58.9,29.90,North,0,0.0,0.0,65,0.00,,,0.00,WUHU216HW,2013-06-16 00:50:00,
2013-06-15 20:55:00,71.1,59.1,29.90,North,0,0.0,0.0,66,0.00,,,0.00,WUHU216HW,2013-06-16 00:55:00,
2013-06-15 21:00:00,70.9,59.0,29.90,North,0,0.0,0.0,66,0.00,,,0.00,WUHU216HW,2013-06-16 01:00:00,
2013-06-15 21:05:00,70.7,59.2,29.90,North,0,0.0,0.0,67,0.00,,,0.00,WUHU216HW,2013-06-16 01:05:00,
2013-06-15 21:10:00,70.6,59.1,29.90,North,0,0.0,0.0,67,0.00,,,0.00,WUHU216HW,2013-06-16 01:10:00,
2013-06-15 21:15:00,70.4,59.3,29.90,North,0,0.0,0.0,68,0.00,,,0.00,WUHU216HW,2013-06-16 01:15:00,
2013-06-15 21:20:00,70.2,59.1,29.90,North,0,0.0,0.0,68,0.00,,,0.00,WUHU216HW,2013-06-16 01:20:00,
2013-06-15 21:25:00,70.2,59.5,29.91,North,0,0.0,0.0,69,0.00,,,0.00,WUHU216HW,2013-06-16 01:25:00,
2013-06-15 21:30:00,69.8,59.1,29.91,North,0,0.0,0.0,69,0.00,,,0.00,WUHU216HW,2013-06-16 01:30:00,
2013-06-15 21:35:00,69.8,59.6,29.91,North,0,0.0,0.0,70,0.00,,,0.00,WUHU216HW,2013-06-16 01:35:00,
2013-06-15 21:40:00,69.8,59.6,29.91,North,0,0.0,0.0,70,0.00,,,0.00,WUHU216HW,2013-06-16 01:40:00,
2013-06-15 21:45:00,69.7,59.4,29.91,North,0,0.0,0.0,70,0.00,,,0.00,WUHU216HW,2013-06-16 01:45:00,
2013-06-15 21:50:00,69.5,59.2,29.92,North,0,0.0,0.0,70,0.00,,,0.00,WUHU216HW,2013-06-16 01:50:00,
2013-06-15 21:55:00,69.5,59.7,29.92,North,0,0.0,0.0,71,0.00,,,0.00,WUHU216HW,2013-06-16 01:55:00,
2013-06-15 22:00:00,69.3,59.5,29.92,North,0,0.0,0.0,71,0.00,,,0.00,WUHU216HW,2013-06-16 02:00:00,
2013-06-15 22:05:00,69.1,59.3,29.92,North,0,0.0,0.0,71,0.00,,,0.00,WUHU216HW,2013-06-16 02:05:00,
2013-06-15 22:10:00,69.1,59.7,29.92,North,0,0.0,0.0,72,0.00,,,0.00,WUHU216HW,2013-06-16 02:10:00,
2013-06-15 22:15:00,68.9,59.5,29.92,North,0,0.0,0.0,72,0.00,,,0.00,WUHU216HW,2013-06-16 02:15:00,
2013-06-15 22:20:00,68.8,59.4,29.92,North,0,0.0,0.0,72,0.00,,,0.00,WUHU216HW,2013-06-16 02:20:00,
2013-06-15 22:25:00,68.8,59.8,29.92,North,0,0.0,0.0,73,0.00,,,0.00,WUHU216HW,2013-06-16 02:25:00,
2013-06-15 22:30:00,68.6,59.6,29.92,North,0,0.0,0.0,73,0.00,,,0.00,WUHU216HW,2013-06-16 02:30:00,
2013-06-15 22:35:00,68.6,59.6,29.92,North,0,0.0,0.0,73,0.00,,,0.00,WUHU216HW,2013-06-16 02:35:00,
2013-06-15 22:40:00,68.4,59.8,29.92,North,0,0.0,0.0,74,0.00,,,0.00,WUHU216HW,2013-06-16 02:40:00,
2013-06-15 22:45:00,68.4,59.8,29.92,North,0,0.0,0.0,74,0.00,,,0.00,WUHU216HW,2013-06-16 02:45:00,
2013-06-15 22:50:00,68.4,59.8,29.92,North,0,0.0,0.0,74,0.00,,,0.00,WUHU216HW,2013-06-16 02:50:00,
2013-06-15 22:55:00,68.2,59.7,29.92,North,0,0.0,0.0,74,0.00,,,0.00,WUHU216HW,2013-06-16 02:55:00,
2013-06-15 23:00:00,68.0,59.9,29.92,North,0,0.0,0.0,75,0.00,,,0.00,WUHU216HW,2013-06-16 03:00:00,
2013-06-15 23:06:00,68.0,59.9,29.93,North,0,0.0,0.0,75,0.00,,,0.00,WUHU216HW,2013-06-16 03:06:00,
2013-06-15 23:11:00,67.9,59.7,29.93,North,0,0.0,0.0,75,0.00,,,0.00,WUHU216HW,2013-06-16 03:11:00,
2013-06-15 23:16:00,67.9,59.7,29.93,North,0,0.0,0.0,75,0.00,,,0.00,WUHU216HW,2013-06-16 03:16:00,
2013-06-15 23:21:00,67.7,59.5,29.93,North,0,0.0,0.0,75,0.00,,,0.00,WUHU216HW,2013-06-16 03:21:00,
2013-06-15 23:26:00,67.7,59.9,29.93,North,0,0.0,0.0,76,0.00,,,0.00,WUHU216HW,2013-06-16 03:26:00,
2013-06-15 23:31:00,67.5,59.7,29.93,North,0,0.0,0.0,76,0.00,,,0.00,WUHU216HW,2013-06-16 03:31:00,
2013-06-15 23:36:00,67.3,59.5,29.93,North,0,0.0,0.0,76,0.00,,,0.00,WUHU216HW,2013-06-16 03:36:00,
2013-06-15 23:41:00,67.3,59.5,29.93,North,0,0.0,0.0,76,0.00,,,0.00,WUHU216HW,2013-06-16 03:41:00,
2013-06-15 23:46:00,67.3,59.5,29.93,North,0,0.0,0.0,76,0.00,,,0.00,WUHU216HW,2013-06-16 03:46:00,
2013-06-15 23:51:00,67.1,59.7,29.93,North,0,0.0,0.0,77,0.00,,,0.00,WUHU216HW,2013-06-16 03:51:00,
2013-06-15 23:56:00,67.0,59.5,29.93,North,0,0.0,0.0,77,0.00,,,0.00,WUHU216HW,2013-06-16 03:56:00,